Regional Weather Roundup
Issued by NWS Kansas City/Pleasant Hill, MO

Home | Current Version | Previous Version | Graphics & Text | Print | Product List | Glossary Off
Versions: 1 2 3 4 5 6 7 8 9 10 11 12 13 14 15 16 17 18 19 20 21 22 23 24 25 26 27 28

000
ASUS43 KEAX 221610
RWREAX

WEATHER ROUNDUP FOR EASTERN KANSAS AND NORTHWEST MISSOURI
NATIONAL WEATHER SERVICE KANSAS CITY/PLEASANT HILL MO
1100 AM CDT TUE AUG 22 2017

KSZ040-057-103>105-MOZ028-029-037-043-221700-
...KANSAS CITY METROPOLITAN AREA...

CITY           SKY/WX    TMP DP  RH WIND       PRES   REMARKS
K.C. INTL      PTSUNNY   74  66  76 N10       30.12R
K.C. DOWNTOWN  MOSUNNY   76  67  73 N12       30.10S
LEES SUMMIT    CLOUDY    74  68  81 MISG      30.11S
OLATHE - IXD   MOSUNNY   73  67  81 N13       30.12R
OLATHE - OJC   MOSUNNY   73  67  81 N12       30.11R
LAWRENCE       MOSUNNY   76  68  76 NW12      30.12R

$$

MOZ001>008-011>017-020>025-030>033-038>040-044>046-053-054-221700-
...NORTHERN AND CENTRAL MISSOURI...

CITY           SKY/WX    TMP DP  RH WIND       PRES   REMARKS
ST. JOSEPH     MOSUNNY   73  68  84 N9        30.13S
MOSBY            N/A     72  64  78 N12       30.11R
WARRENSBURG    MOSUNNY   72  64  78 N6        30.10R
WHITEMAN AFB   PTSUNNY   70  70 100 N12       30.09R
CLINTON        PTSUNNY   75  70  83 CALM      30.10R
SEDALIA        PTSUNNY   75  69  81 NW8       30.10R
WARSAW         NOT AVBL
CHILLICOTHE      N/A     75  66  73 VRB5      30.10R
KIRKSVILLE     SUNNY     75  66  73 NW9       30.07S

$$

MOZ041-047>049-056>058-063>065-088>090-097-221700-
...EASTERN AND SOUTHERN MISSOURI...

CITY           SKY/WX    TMP DP  RH WIND       PRES   REMARKS
ST. LOUIS INTL CLOUDY    74  72  93 NW9       30.02R
SPIRIT OF STL  CLOUDY    76  72  87 NW10      30.02R
COLUMBIA       CLOUDY    71  70  96 N16       30.07R
JEFFERSON CITY FOG       73  72  96 W12       30.07R VSB 1
ROLLA          CLOUDY    72  70  93 W14G22    30.09R
OSAGE BEACH    CLOUDY    73  70  88 W8        30.10R
SPRINGFIELD    CLOUDY    67  67 100 S3        30.11S
BRANSON        CLOUDY    68  66  94 S7        30.12F
JOPLIN         PTSUNNY   74  71  91 SE7       30.10R
WEST PLAINS    CLOUDY    75  66  73 NW10      30.08R

$$

IAZ060-094-KSZ022-034>040-054-083-096-NEZ052-066-093-221700-
...KANSAS...SOUTHEAST NEBRASKA AND IOWA...

CITY           SKY/WX    TMP DP  RH WIND       PRES   REMARKS
TOPEKA         MOSUNNY   76  67  73 N12       30.13R
MANHATTAN      SUNNY     76  66  71 NE13      30.15R
EMPORIA        CLOUDY    69  67  93 NE12      30.12R
CHANUTE        PTSUNNY   78  71  79 CALM      30.08R
WICHITA        PTSUNNY   82  72  71 N18       30.07R
OMAHA          MOSUNNY   71  56  58 N12       30.17R
LINCOLN        SUNNY     72  56  57 N8        30.21R
FALLS CITY     CLOUDY    71  65  81 N12       30.15R
LAMONI         MOSUNNY   73  59  61 N12       30.11R
DES MOINES     MOSUNNY   72  59  63 NW13      30.08R

$$





USA.gov is the U.S. government's official web portal to all federal, state and local government web resources and services.